Location: Jefferson Hunt Monument
(37.6039°N, 113.6039°W)
Time: 03:57:50
(UTC+00:00)

Daily predictions for brighter satellites

Satellite Brightness Start Highest point End
(mag) Time Altitude Azimuth Time Altitude Azimuth Time Altitude Azimuth
CZ-2D R/B 3.3 01:50:16 10° SSE 01:54:04 59° ENE 01:57:55 10° N
Cosmos 1844 Rocket 3.9 01:50:47 10° SE 01:54:41 20° E 01:58:36 10° NE
Meteor 2-9 Rocket 4.3 01:51:09 10° S 01:56:56 69° E 02:02:43 10° NNE
Cosmos 2084 Rocket 3.8 01:53:27 10° NNW 01:57:51 54° NE 02:02:17 10° SE
Cosmos 1544 3.8 01:54:38 10° SSW 01:58:14 59° W 02:01:51 10° N
Tsikada Rocket 4.1 01:53:55 10° N 02:00:06 85° W 02:06:17 10° S
CZ-4 R/B 4.4 01:56:26 10° SSE 02:00:31 84° ENE 02:04:40 10° N
Cosmos 807 4.4 01:59:20 10° S 02:02:18 54° E 02:05:46 10° NNE
Cosmos 1937 Rocket 3.6 01:57:32 10° SSW 02:02:48 87° WNW 02:08:03 10° NNE
CZ-2C R/B 1.3 01:59:57 10° WSW 02:03:37 55° S 02:07:02 10° E
Cosmos 1939 Rocket 3.3 02:01:38 10° S 02:05:43 71° W 02:09:51 10° NNW
Cosmos 2112 Rocket 4.1 02:04:04 10° NNW 02:09:18 84° WSW 02:14:32 10° SSE
Milstar 3 Cent rocket 4.0 02:03:21 10° SW 02:09:42 23° S 02:14:02 10° ESE
Cosmos 1943 3.2 02:06:24 10° NNW 02:12:03 69° ENE 02:17:41 10° SSE
Cosmos 1680 Rocket 4.0 02:07:10 10° NNW 02:12:21 66° WSW 02:17:33 10° S
USA 234 4.3 02:08:27 10° ENE 02:13:30 23° ESE 02:18:32 10° S
Cosmos 1975 Rocket 3.0 02:12:52 10° N 02:17:09 59° E 02:21:23 10° SSE
Helios 1A Rocket 3.9 02:13:14 10° S 02:17:13 50° W 02:21:14 10° NNW
Iridium 4 Rocket 3.7 02:12:33 10° S 02:17:24 75° W 02:22:46 10° N
CSL-04 Debris 4.3 02:12:52 10° SSE 02:18:06 57° ENE 02:23:23 10° N
BREEZE-M DEB (TANK) 3.6 02:16:30 10° NNW 02:18:10 18° NNE 02:19:17 13° ENE
CSL-04 Rocket 3.7 02:19:29 10° SSE 02:24:48 62° ENE 02:30:13 10° N
Cosmos 1174 4.4 02:22:29 10° SSW 02:27:00 61° ESE 02:32:44 10° NE
HJ-1C 3.4 02:27:40 10° SSE 02:30:51 54° ENE 02:34:05 10° N
H-2A R/B 3.3 02:32:22 10° S 02:33:27 12° SSE 02:33:48 12° SSE
Cosmos 1603 4.1 02:28:24 10° NNW 02:34:00 65° WSW 02:39:32 10° S
Exosat Rocket 4.3 02:31:09 10° SSE 02:36:28 33° ESE 02:41:00 10° NE
Sich 1 Rocket 3.7 02:33:34 10° S 02:38:03 80° W 02:42:35 10° N
H-2A R/B 1.9 02:33:48 10° SSE 02:38:41 68° ENE 02:43:43 10° N
Meteor 1-21 4.5 02:35:18 10° NNW 02:40:53 72° W 02:46:26 10° S
Cosmos 1072 Rocket 4.4 02:38:19 10° S 02:44:31 82° E 02:50:52 10° N
Meteor 1-12 Rocket 4.2 02:40:26 10° S 02:46:22 81° E 02:52:13 10° N
Nadezhda 4 Rocket 4.3 02:42:00 10° N 02:47:47 42° ENE 02:52:33 15° SE
ATLAS 2AS CENTAUR R/B 3.6 02:41:36 10° SSE 02:48:17 32° ESE 02:55:03 10° NE
CZ-4 R/B 3.2 02:44:46 10° SSW 02:48:38 35° W 02:52:31 10° NNW
BREEZE-M DEB (TANK) 3.6 02:46:40 10° NW 02:49:53 44° NE 02:54:11 22° E
Cosmos 2034 Rocket 4.0 02:45:02 10° S 02:51:16 60° E 02:57:29 10° NNE
Okean 1 Rocket 4.1 02:53:24 26° ENE 02:53:24 26° ENE 02:56:33 10° NNE
Okean 2 Rocket 3.1 02:49:51 10° S 02:54:21 85° W 02:58:51 10° N
Cosmos 1707 2.6 02:50:35 10° N 02:54:26 89° E 02:58:14 10° S
Cosmos 1300 Rocket 3.6 02:52:19 10° S 02:56:42 81° W 03:01:09 10° N
CENTAUR R/B 3.9 02:50:02 10° NNW 02:57:21 35° NE 03:01:27 24° E
Ariane Rocket 3.3 02:56:56 27° SE 02:59:20 46° ENE 03:04:11 10° N
GOES 2 Rocket 4.4 02:56:08 10° SW 02:59:24 22° S 03:00:00 22° SSE
DELTA 2 R/B (1) 4.2 03:02:00 10° W 03:07:18 47° SSW 03:09:53 27° SSE
SJ-6B 3.3 03:08:51 39° NE 03:08:51 39° NE 03:11:52 10° N
ARGOS 3.1 03:03:33 10° SSE 03:08:54 83° WSW 03:14:18 10° NNW
Meteor 2-5 Rocket 4.5 03:05:16 10° NNE 03:10:17 31° ENE 03:10:22 31° ENE
In-Cosmos 22 4.0 03:05:48 10° N 03:11:08 88° ENE 03:15:58 13° S
ATLAS 5 CENTAUR R/B 3.7 03:07:14 10° NW 03:11:09 59° SW 03:24:57 10° SSE
SL-08 RB Rocket 3.6 03:09:04 27° SSE 03:11:34 77° ENE 03:16:08 10° N
USA 238 DEB 4.1 03:06:36 10° NNW 03:13:43 54° NE 03:16:45 35° ESE
USA 238 4.1 03:06:42 10° NNW 03:13:49 54° NE 03:16:50 35° ESE
USA 186 2.2 03:14:49 53° N 03:14:49 53° N 03:17:24 10° N
CZ-2C R/B 4.5 03:11:45 10° SSW 03:16:34 39° W 03:21:39 10° NNW
CZ-2C R/B 2.6 03:11:39 10° NNE 03:17:15 79° ESE 03:22:52 10° S
Cosmos 1536 Rocket 3.5 03:16:52 10° N 03:21:20 88° E 03:22:45 44° S
Cosmos 1634 Rocket 4.2 03:21:52 43° ESE 03:22:39 45° E 03:28:29 10° NNE
SPOT 3 Rocket 4.3 03:25:35 34° NE 03:25:35 34° NE 03:29:33 10° N
Cosmos 1025 Rocket 3.6 03:21:37 10° NNW 03:25:55 58° W 03:28:46 20° SSW
ISS -0.9 03:25:27 10° NW 03:27:13 13° NNW 03:28:44 11° N
Cosmos 2285 Rocket 3.9 03:26:38 10° SSW 03:32:55 89° WNW 03:39:18 10° NNE
Cosmos 1844 3.9 03:28:01 10° SSW 03:33:42 69° WNW 03:39:22 10° NNE
Cosmos 1844 Rocket 3.5 03:32:44 10° SW 03:38:07 49° WNW 03:43:33 10° NNE
Meteor 2-13 Rocket 4.3 03:32:14 10° N 03:38:23 71° E 03:39:34 57° SE
NOSS 3-2 (A) 4.0 03:32:55 10° NNW 03:40:44 84° ENE 03:43:55 44° SE
CZ-2C R/B 2.9 03:39:40 10° W 03:41:25 24° WSW 03:41:25 24° WSW
Cosmos 1627 Rocket 4.5 03:38:11 10° N 03:44:31 60° E 03:44:40 60° E
Cosmos 1092 Rocket 3.8 03:42:36 10° N 03:48:48 82° E 03:49:45 65° SSE
Cosmos 2195 Rocket 4.3 03:43:23 10° N 03:49:38 74° E 03:49:59 72° ESE
MetOp-A 4.2 03:49:02 58° SSW 03:50:02 74° WSW 03:55:24 10° NNW
Cosmos 1125 Rocket 4.5 03:46:13 10° SW 03:51:18 46° WNW 03:56:26 10° N
Cosmos 2026 Rocket 3.9 03:47:00 10° N 03:53:11 67° ENE 03:53:11 67° ENE
USA 234 3.2 03:52:10 20° NE 03:56:54 82° NW 04:03:27 10° SW
Cosmos 1428 Rocket 4.5 03:57:56 10° N 04:03:32 69° NNE 04:03:32 69° NNE
Cosmos 1833 Rocket 4.4 04:01:03 10° N 04:03:34 21° NNE 04:03:34 21° NNE
Resurs 01 Rocket 3.7 04:14:24 22° N 04:14:24 22° N 04:15:57 10° N
NOSS 3-4 (A) 3.7 04:10:25 10° SW 04:16:12 63° NW 04:22:21 10° NNE
NOSS 3-4 (C) 3.6 04:10:31 10° SW 04:16:18 64° NW 04:22:28 10° NNE
NOSS 3-2 (C) 4.0 04:08:39 10° NNW 04:16:29 89° ENE 04:17:17 76° SE
ATLAS 2AS CENTAUR R/B 3.5 04:31:08 10° SW 04:38:54 58° NW 04:46:43 10° NNE
CENTAUR R/B 3.4 04:40:23 10° NW 04:48:39 65° WSW 04:48:39 65° WSW
Cosmos 2082 Rocket 4.4 04:45:47 10° N 04:47:12 17° N 04:47:12 17° N
ATLAS 3B R/B 3.8 04:50:17 10° NNW 04:54:33 38° N 04:54:33 38° N
USA 267 3.8 10:04:52 10° NE 10:09:48 53° NNE 10:09:48 53° NNE
Cosmos 1697 Rocket 4.3 10:30:19 25° N 10:30:19 25° N 10:32:52 10° N
Cosmos 1980 Rocket 3.1 10:34:34 43° N 10:34:34 43° N 10:38:18 10° NNE
Cosmos 2322 Rocket 4.0 10:37:25 19° SE 10:39:54 25° ESE 10:44:29 10° NE
SL-4 R/B 3.9 10:43:55 31° E 10:43:55 31° E 10:46:53 10° ENE
Cosmos 2263 Rocket 3.8 10:38:10 10° N 10:43:13 32° ENE 10:48:14 10° ESE
USA 234 4.3 10:37:46 10° E 10:43:46 41° NNE 10:49:47 10° NNW
SL-16 R/B 3.3 10:47:26 31° SE 10:49:05 38° ESE 10:54:18 10° NE
ADEOS II 4.1 10:48:36 10° N 10:50:02 17° NNW 10:50:02 17° NNW
ARIANE 5 R/B 3.7 10:50:12 10° N 10:53:01 32° N 10:53:01 32° N
Cosmos 1934 Rocket 3.8 10:50:36 10° N 10:56:41 89° W 10:57:12 76° S
CZ-2C R/B 3.9 10:55:40 10° NNE 11:00:24 36° E 11:04:21 14° SSE
ASTEX 1 4.3 10:55:33 10° N 10:58:46 40° N 10:58:46 40° N
IDEFIX/ARIANE 42P 3.0 10:56:46 10° N 11:00:51 51° NNW 11:00:51 51° NNW
Cosmos 1763 Rocket 4.4 11:01:39 33° SSE 11:03:32 47° ESE 11:08:37 10° NNE
SJ 16-02 2.6 11:02:34 10° N 11:06:44 41° ENE 11:10:53 10° SE
H-2A R/B 2.8 11:07:53 10° SSE 11:12:05 53° ENE 11:16:26 10° N
Meteor 1-14 Rocket 4.1 11:09:27 10° NNW 11:14:40 65° WNW 11:14:40 65° WNW
Meteor 2-6 Rocket 4.1 11:14:54 55° SSW 11:16:13 85° W 11:22:02 10° N
Cosmos 1238 Rocket 3.8 11:09:56 10° NNW 11:16:24 68° W 11:17:49 51° SSW
Meteor 1-5 Rocket 4.4 11:12:04 10° N 11:17:23 67° E 11:22:48 10° SSE
Landsat 5 3.8 11:17:37 10° SSE 11:22:06 73° ENE 11:26:36 10° N
ERS-2 3.8 11:19:24 10° SE 11:22:42 33° ENE 11:26:02 10° N
X-37B 2.7 11:23:28 23° NNE 11:23:28 23° NNE 11:25:47 10° ENE
Cosmos 1605 Rocket 3.9 11:17:42 10° N 11:24:09 85° W 11:30:31 10° S
Lacrosse 5 3.9 11:24:36 15° NNW 11:25:03 16° NNW 11:28:05 10° N
Helios 1B 4.4 11:25:29 77° WNW 11:25:29 77° WNW 11:29:37 10° NNW
PAYLOAD A 3.8 11:23:43 10° NNE 11:28:24 78° ESE 11:30:37 32° S
BREEZE M DEB (TANK) 4.0 11:15:26 10° WNW 11:29:36 66° NNE 11:33:42 10° ESE
Cosmos 468 Rocket 3.9 11:30:16 43° SSW 11:32:02 82° WNW 11:37:20 10° NNE
ALOS 4.1 11:35:11 10° NE 11:39:20 31° E 11:43:27 10° SSE
CSL-04 DEB 4.4 11:36:15 10° S 11:40:31 73° WSW 11:44:53 10° NNW
Cosmos 1536 4.0 11:39:22 10° N 11:43:17 45° E 11:47:10 10° SSE
Cosmos 1812 4.0 11:56:57 24° NW 11:56:57 24° NW 11:59:19 10° NNW
Cosmos 921 Rocket 4.4 11:56:57 21° NW 11:56:57 21° NW 11:59:27 10° NNW
